Flag for Denmark Weather past 2 weeks in Skagen, Denmark

45 °F

Passing clouds.

Feels Like: 42 °F
Forecast: 51 / 53 °F
Wind: 5 mph from East

Location: Gothenburg / Save

Current Time: Oct 9, 2015 at 12:26:56 AM

Latest Report: Oct 8, 2015 at 11:20 PM

Visibility: N/A

Pressure: 30.27 "Hg

Humidity: 81%

Dew point: 39 °F

Location of SkagenLocation

Historic Weather in Skagen — Graph


Skagen temperature yesterday

Maximum temperature yesterday: 52 °F (at 1:50 PM)
Minimum temperature yesterday: 45 °F (at 2:20 AM)
Average temperature yesterday: 48 °F

Past Weeks' High & Low Weather Summary

High63 °F (Sep 28, 3:50 PM)100% (Sep 23, 10:50 PM)30.74 "Hg (Sep 23, 10:50 PM)
Low36 °F (Sep 27, 5:20 AM)48% (Sep 27, 4:20 PM)29.80 "Hg (Sep 24, 7:50 PM)
Average52 °F79%30.21 "Hg
* Reported Sep 23 10:20 PM — Oct 8 10:50 PM, Skagen, Weather by CustomWeather, © 2015

Note: Actual official high and low records may vary slightly from our data, if they occured in-between our weather recording intervals... More about our weather records


Skagen weather history for previous 24 hours

Time TempWeatherWind HumidityBarometerVisibility
10:50 PM
Thu, Oct 8
46 °FLight rain. Passing clouds.6 mph76%30.27 "HgN/A
10:20 PM46 °FLight rain. Passing clouds.5 mph71%30.27 "HgN/A
9:50 PM46 °FLight rain. Passing clouds.6 mph71%30.27 "HgN/A
9:20 PM48 °FPassing clouds.6 mph66%30.27 "HgN/A
8:50 PM48 °FLight rain. Passing clouds.5 mph66%30.27 "HgN/A
8:20 PM48 °FPassing clouds.3 mph71%30.24 "HgN/A
7:50 PM48 °FPassing clouds.5 mph71%30.24 "HgN/A
7:20 PM48 °FDrizzle. Mostly cloudy.6 mph71%30.24 "HgN/A
6:50 PM50 °FDrizzle. Overcast.5 mph67%30.24 "HgN/A
6:20 PM50 °FLight rain. Partly sunny.3 mph67%30.24 "HgN/A
5:50 PM50 °FLight rain. Broken clouds.6 mph67%30.24 "HgN/A
5:20 PM50 °FDrizzle. Broken clouds.7 mph62%30.24 "HgN/A
4:50 PM50 °FDrizzle. Broken clouds.6 mph67%30.24 "HgN/A
4:20 PM52 °FSunny.8 mph58%30.24 "Hg10 mi
3:50 PM52 °FSunny.7 mph54%30.24 "Hg10 mi
3:20 PM52 °FPassing clouds.7 mph54%30.21 "HgN/A
2:50 PM52 °FSunny.9 mph54%30.21 "Hg10 mi
2:20 PM52 °FPassing clouds.9 mph54%30.21 "HgN/A
1:50 PM52 °FSunny.12 mph54%30.21 "Hg10 mi
1:20 PM50 °FSunny.10 mph58%30.21 "Hg10 mi
12:50 PM50 °FSunny.13 mph58%30.21 "Hg10 mi
12:20 PM50 °FSunny.12 mph58%30.21 "Hg10 mi
11:50 AM50 °FSunny.12 mph58%30.21 "Hg10 mi
11:20 AM48 °FSunny.14 mph62%30.21 "Hg10 mi
10:50 AM48 °FSunny.12 mph62%30.21 "Hg10 mi
10:20 AM46 °FPassing clouds.12 mph66%30.21 "HgN/A
9:50 AM46 °FSunny.10 mph66%30.21 "Hg10 mi
9:20 AM46 °FPassing clouds.12 mph66%30.18 "HgN/A
8:50 AM45 °FSunny.10 mph71%30.18 "Hg10 mi
8:20 AM45 °FClear.10 mph71%30.18 "Hg10 mi
7:50 AM45 °FClear.10 mph71%30.18 "Hg10 mi
7:20 AM45 °FClear.9 mph71%30.18 "Hg10 mi
6:50 AM45 °FClear.9 mph71%30.18 "Hg10 mi
6:20 AM45 °FClear.9 mph71%30.18 "Hg10 mi
5:20 AM45 °FClear.7 mph71%30.18 "Hg10 mi
4:50 AM45 °FClear.6 mph71%30.18 "Hg10 mi
4:20 AM45 °FPassing clouds.7 mph71%30.18 "HgN/A
3:50 AM45 °FClear.7 mph71%30.18 "Hg10 mi
3:20 AM45 °FClear.7 mph71%30.18 "Hg10 mi
2:50 AM45 °FClear.8 mph71%30.18 "Hg10 mi
2:20 AM45 °FClear.8 mph71%30.18 "Hg10 mi
1:50 AM46 °FClear.8 mph66%30.18 "Hg10 mi
1:20 AM46 °FClear.7 mph66%30.18 "Hg10 mi
12:50 AM46 °FPassing clouds.8 mph66%30.18 "HgN/A
12:20 AM46 °FPassing clouds.9 mph62%30.18 "HgN/A
Weather by CustomWeather, © 2015

See weather overviewHow to use our weather pages